NGN410 EDDK-LPMA

Flight info

Callsign NGN410
Flight time 3h 38m
Altitude 32000
Route NVO3F NVO Y868 NAVAK Z283 LNO DCT RASCA DCT FAMEN DCT ESTOC/N0442F330 DCT PON DCT DITAL/N0444F350 DCT GODIX DCT DIDAK DCT KURIS DCT TERPO DCT ERIGA DCT FUJTI DCT ATLEN DCT ABUPI DCT NASAS DCT ROLAR/N0445F370 DCT RAKUN RAKUN1P
Aircraft A320/M-SDE3FGHIJ1LORVWXY/SB1

Departure

Time 2026-04-26 08:51
Airport Cologne Bonn Airport (EDDK)

Arrival

Time 2026-04-26 12:30
Airport Cristiano Ronaldo International Airport (LPMA)
Time Latitude Longitude Altitude Speed Heading
2026-04-26 07:50 50.88220 7.12244 232 ft 0 kts 36°
2026-04-26 08:41 50.88220 7.12243 232 ft 2 kts 36°
2026-04-26 08:41 50.88199 7.12223 232 ft 3 kts 36°
2026-04-26 08:41 50.88184 7.12203 232 ft 4 kts 88°
2026-04-26 08:42 50.88193 7.12166 232 ft 4 kts 125°
2026-04-26 08:42 50.88202 7.12146 232 ft 0 kts 126°
2026-04-26 08:46 50.88200 7.12150 234 ft 2 kts 126°
2026-04-26 08:46 50.88184 7.12185 233 ft 5 kts 126°
2026-04-26 08:46 50.88160 7.12238 234 ft 6 kts 121°
2026-04-26 08:47 50.88154 7.12312 232 ft 8 kts 82°
2026-04-26 08:47 50.88146 7.12399 234 ft 9 kts 123°
2026-04-26 08:47 50.88102 7.12475 232 ft 10 kts 135°
2026-04-26 08:47 50.88047 7.12555 234 ft 10 kts 137°
2026-04-26 08:48 50.88004 7.12620 235 ft 9 kts 129°
2026-04-26 08:48 50.87989 7.12711 234 ft 7 kts 86°
2026-04-26 08:48 50.87996 7.12752 236 ft 2 kts 72°
2026-04-26 08:48 50.87997 7.12756 236 ft 0 kts 72°
2026-04-26 08:49 50.87998 7.12763 236 ft 2 kts 72°
2026-04-26 08:49 50.88007 7.12815 238 ft 7 kts 78°
2026-04-26 08:49 50.88010 7.12896 239 ft 8 kts 82°
2026-04-26 08:50 50.88006 7.12977 239 ft 7 kts 134°
2026-04-26 08:50 50.87958 7.13045 239 ft 15 kts 138°
2026-04-26 08:50 50.87748 7.13344 239 ft 73 kts 137°
2026-04-26 08:50 50.87227 7.14100 246 ft 127 kts 137°
2026-04-26 08:51 50.85594 7.16433 792 ft 165 kts 137°
2026-04-26 08:51 50.84742 7.17633 1435 ft 163 kts 137°
2026-04-26 08:51 50.83894 7.18821 1845 ft 171 kts 138°
2026-04-26 08:52 50.82952 7.20137 2072 ft 187 kts 139°
2026-04-26 08:52 50.81936 7.21551 2316 ft 202 kts 138°
2026-04-26 08:52 50.80850 7.23059 2685 ft 211 kts 140°
2026-04-26 08:52 50.79528 7.24199 3040 ft 227 kts 163°
2026-04-26 08:53 50.77909 7.24656 3417 ft 245 kts 171°
2026-04-26 08:53 50.76169 7.25062 3885 ft 259 kts 171°
2026-04-26 08:53 50.74348 7.25479 4470 ft 269 kts 171°
2026-04-26 08:53 50.72475 7.25912 5133 ft 275 kts 171°
2026-04-26 08:54 50.70568 7.26356 5796 ft 281 kts 172°
2026-04-26 08:54 50.68618 7.26811 6481 ft 285 kts 172°
2026-04-26 08:54 50.66633 7.27244 7135 ft 290 kts 177°
2026-04-26 08:54 50.64642 7.26878 7746 ft 290 kts 202°
2026-04-26 08:55 50.62909 7.25311 8417 ft 287 kts 226°
2026-04-26 08:55 50.62050 7.23735 8848 ft 285 kts 242°
2026-04-26 08:55 50.61329 7.20866 9516 ft 281 kts 264°
2026-04-26 08:55 50.61364 7.17786 10181 ft 278 kts 286°
2026-04-26 08:56 50.62103 7.15020 10716 ft 283 kts 302°
2026-04-26 08:56 50.63162 7.12271 10859 ft 304 kts 303°
2026-04-26 08:56 50.64326 7.09348 10985 ft 324 kts 303°
2026-04-26 08:56 50.65555 7.06291 11322 ft 335 kts 303°
2026-04-26 08:57 50.66806 7.03162 11859 ft 339 kts 303°
2026-04-26 08:57 50.68064 6.99988 12398 ft 343 kts 303°
2026-04-26 08:57 50.69327 6.96784 12956 ft 346 kts 302°
2026-04-26 08:57 50.70603 6.93541 13511 ft 349 kts 302°
2026-04-26 08:58 50.71889 6.90265 14062 ft 352 kts 302°
2026-04-26 08:58 50.73183 6.86956 14563 ft 355 kts 302°
2026-04-26 08:58 50.74487 6.83624 15051 ft 358 kts 302°
2026-04-26 08:58 50.75802 6.80261 15537 ft 361 kts 302°
2026-04-26 08:59 50.77123 6.76873 16011 ft 364 kts 302°
2026-04-26 08:59 50.78455 6.73453 16485 ft 367 kts 302°
2026-04-26 08:59 50.79754 6.69972 16957 ft 370 kts 296°
2026-04-26 08:59 50.80640 6.66144 17432 ft 373 kts 283°
2026-04-26 09:00 50.80961 6.62127 17903 ft 377 kts 271°
2026-04-26 09:00 50.80692 6.57988 18398 ft 380 kts 258°
2026-04-26 09:00 50.79841 6.53958 18875 ft 384 kts 249°
2026-04-26 09:00 50.78860 6.50077 19345 ft 386 kts 249°
2026-04-26 09:01 50.77861 6.46126 19808 ft 388 kts 249°
2026-04-26 09:01 50.76854 6.42153 20271 ft 390 kts 249°
2026-04-26 09:01 50.75842 6.38158 20734 ft 393 kts 249°
2026-04-26 09:01 50.74821 6.34141 21191 ft 395 kts 249°
2026-04-26 09:02 50.73795 6.30109 21619 ft 397 kts 249°
2026-04-26 09:02 50.72765 6.26062 22027 ft 399 kts 249°
2026-04-26 09:02 50.71726 6.21983 22434 ft 401 kts 249°
2026-04-26 09:02 50.70682 6.17887 22834 ft 403 kts 248°
2026-04-26 09:03 50.69631 6.13771 23231 ft 405 kts 248°
2026-04-26 09:03 50.68572 6.09633 23614 ft 408 kts 248°
2026-04-26 09:03 50.67510 6.05485 23983 ft 410 kts 249°
2026-04-26 09:03 50.66436 6.01304 24242 ft 414 kts 249°
2026-04-26 09:04 50.65344 5.97067 24356 ft 421 kts 248°
2026-04-26 09:04 50.64230 5.92757 24476 ft 427 kts 249°
2026-04-26 09:04 50.63100 5.88391 24592 ft 433 kts 248°
2026-04-26 09:04 50.61952 5.83968 24756 ft 437 kts 248°
2026-04-26 09:05 50.60799 5.79540 25054 ft 438 kts 248°
2026-04-26 09:05 50.59643 5.75109 25420 ft 437 kts 248°
2026-04-26 09:05 50.58262 5.70852 25776 ft 437 kts 239°
2026-04-26 09:05 50.56505 5.67035 26135 ft 437 kts 231°
2026-04-26 09:06 50.54567 5.63338 26509 ft 437 kts 232°
2026-04-26 09:06 50.52639 5.59663 26892 ft 436 kts 232°
2026-04-26 09:06 50.50710 5.55993 27266 ft 435 kts 232°
2026-04-26 09:06 50.48780 5.52324 27612 ft 436 kts 232°
2026-04-26 09:07 50.46824 5.48608 27981 ft 435 kts 232°
2026-04-26 09:07 50.44921 5.44997 28368 ft 434 kts 232°
2026-04-26 09:07 50.42995 5.41353 28775 ft 433 kts 232°
2026-04-26 09:07 50.41064 5.37702 29172 ft 432 kts 232°
2026-04-26 09:08 50.39149 5.34083 29575 ft 431 kts 232°
2026-04-26 09:08 50.37234 5.30467 29972 ft 430 kts 232°
2026-04-26 09:08 50.35327 5.26875 30371 ft 429 kts 232°
2026-04-26 09:08 50.33418 5.23287 30716 ft 428 kts 232°
2026-04-26 09:09 50.31512 5.19714 31053 ft 427 kts 232°
2026-04-26 09:09 50.29606 5.16150 31377 ft 426 kts 232°
2026-04-26 09:09 50.27708 5.12599 31714 ft 425 kts 232°
2026-04-26 09:09 50.25814 5.09056 32043 ft 424 kts 232°
2026-04-26 09:10 50.23919 5.05513 32374 ft 423 kts 233°
2026-04-26 09:10 50.22027 5.01987 32681 ft 424 kts 233°
2026-04-26 09:10 50.20134 4.98464 33001 ft 423 kts 233°
2026-04-26 09:10 50.18240 4.94939 33248 ft 423 kts 233°
2026-04-26 09:11 50.16338 4.91405 33308 ft 428 kts 233°
2026-04-26 09:11 50.12454 4.84197 33299 ft 440 kts 233°
2026-04-26 09:12 50.08480 4.76835 33292 ft 451 kts 233°
2026-04-26 09:12 50.04408 4.69343 33293 ft 453 kts 233°
2026-04-26 09:13 50.00324 4.61857 33296 ft 454 kts 233°
2026-04-26 09:13 49.96518 4.54087 33291 ft 449 kts 243°
2026-04-26 09:14 49.93398 4.45696 33292 ft 449 kts 243°
2026-04-26 09:14 49.90255 4.37324 33296 ft 448 kts 243°
2026-04-26 09:15 49.87105 4.28968 33292 ft 448 kts 243°
2026-04-26 09:15 49.83983 4.20685 33294 ft 448 kts 243°
2026-04-26 09:16 49.80831 4.12366 33292 ft 448 kts 243°
2026-04-26 09:16 49.77661 4.04045 33292 ft 448 kts 243°
2026-04-26 09:17 49.74490 3.95754 33288 ft 448 kts 243°
2026-04-26 09:17 49.71323 3.87474 33288 ft 448 kts 243°
2026-04-26 09:18 49.68148 3.79183 33269 ft 448 kts 243°
2026-04-26 09:18 49.64973 3.70913 33273 ft 448 kts 243°
2026-04-26 09:19 49.61778 3.62640 33271 ft 448 kts 243°
2026-04-26 09:19 49.58575 3.54401 33267 ft 448 kts 242°
2026-04-26 09:20 49.55368 3.46169 33273 ft 448 kts 242°
2026-04-26 09:20 49.52156 3.37936 33279 ft 448 kts 242°
2026-04-26 09:21 49.48948 3.29710 33277 ft 448 kts 242°
2026-04-26 09:21 49.45731 3.21489 33269 ft 448 kts 242°
2026-04-26 09:22 49.42521 3.13338 33268 ft 448 kts 242°
2026-04-26 09:22 49.39280 3.05146 33262 ft 449 kts 242°
2026-04-26 09:23 49.36038 2.96963 33266 ft 449 kts 242°
2026-04-26 09:23 49.32797 2.88773 33268 ft 449 kts 242°
2026-04-26 09:24 49.29542 2.80614 33265 ft 449 kts 242°
2026-04-26 09:24 49.26272 2.72458 33251 ft 449 kts 242°
2026-04-26 09:25 49.23004 2.64310 33251 ft 449 kts 242°
2026-04-26 09:25 49.19758 2.56224 33256 ft 449 kts 242°
2026-04-26 09:26 49.16479 2.48088 33261 ft 450 kts 242°
2026-04-26 09:26 49.13199 2.39962 33262 ft 449 kts 244°
2026-04-26 09:27 49.10463 2.31436 33264 ft 447 kts 248°
2026-04-26 09:27 49.07784 2.22880 33266 ft 447 kts 248°
2026-04-26 09:28 49.05095 2.14326 33247 ft 448 kts 248°
2026-04-26 09:28 49.02391 2.05762 33252 ft 448 kts 248°
2026-04-26 09:29 48.99678 1.97197 33257 ft 449 kts 248°
2026-04-26 09:29 48.96950 1.88631 33260 ft 449 kts 247°
2026-04-26 09:30 48.94234 1.80127 33254 ft 449 kts 247°
2026-04-26 09:30 48.91497 1.71574 33247 ft 449 kts 247°
2026-04-26 09:31 48.88752 1.63038 33258 ft 450 kts 247°
2026-04-26 09:31 48.85998 1.54493 33270 ft 450 kts 247°
2026-04-26 09:32 48.83244 1.45969 33275 ft 450 kts 247°
2026-04-26 09:32 48.80486 1.37452 33278 ft 450 kts 247°
2026-04-26 09:33 48.77710 1.28941 33270 ft 450 kts 247°
2026-04-26 09:33 48.74941 1.20456 33266 ft 450 kts 247°
2026-04-26 09:34 48.72173 1.12006 33257 ft 450 kts 246°
2026-04-26 09:34 48.69382 1.03520 33260 ft 450 kts 246°
2026-04-26 09:35 48.66587 0.95058 33256 ft 450 kts 246°
2026-04-26 09:35 48.63790 0.86591 33240 ft 450 kts 246°
2026-04-26 09:36 48.60983 0.78130 33238 ft 450 kts 246°
2026-04-26 09:36 48.58183 0.69740 33245 ft 450 kts 246°
2026-04-26 09:37 48.55366 0.61306 33246 ft 450 kts 246°
2026-04-26 09:37 48.52542 0.52877 33249 ft 450 kts 246°
2026-04-26 09:38 48.49718 0.44465 33253 ft 450 kts 246°
2026-04-26 09:38 48.46879 0.36059 33250 ft 449 kts 245°
2026-04-26 09:39 48.44037 0.27703 33257 ft 448 kts 245°
2026-04-26 09:39 48.41676 0.20765 33249 ft 448 kts 245°
2026-04-26 09:40 48.38836 0.12422 33250 ft 448 kts 245°
2026-04-26 09:40 48.35988 0.04089 33249 ft 448 kts 245°
2026-04-26 09:41 48.33131 -0.04238 33244 ft 447 kts 245°
2026-04-26 09:41 48.30276 -0.12538 33256 ft 447 kts 245°
2026-04-26 09:42 48.27412 -0.20821 33256 ft 446 kts 244°
2026-04-26 09:42 48.23642 -0.28250 33253 ft 452 kts 226°
2026-04-26 09:43 48.19044 -0.34609 33239 ft 453 kts 226°
2026-04-26 09:43 48.14408 -0.41021 33237 ft 454 kts 226°
2026-04-26 09:44 48.09766 -0.47434 33242 ft 454 kts 226°
2026-04-26 09:44 48.05113 -0.53842 33248 ft 454 kts 225°
2026-04-26 09:45 48.00458 -0.60230 33241 ft 454 kts 225°
2026-04-26 09:45 47.95831 -0.66567 33243 ft 454 kts 225°
2026-04-26 09:46 47.91173 -0.72937 33237 ft 454 kts 225°
2026-04-26 09:46 47.86503 -0.79292 33237 ft 455 kts 225°
2026-04-26 09:47 47.81827 -0.85640 33231 ft 455 kts 225°
2026-04-26 09:47 47.77151 -0.91989 33229 ft 454 kts 225°
2026-04-26 09:48 47.72472 -0.98311 33236 ft 454 kts 225°
2026-04-26 09:48 47.67792 -1.04621 33243 ft 453 kts 225°
2026-04-26 09:49 47.63119 -1.10900 33234 ft 453 kts 225°
2026-04-26 09:49 47.58483 -1.17132 33226 ft 453 kts 225°
2026-04-26 09:50 47.53805 -1.23400 33216 ft 453 kts 225°
2026-04-26 09:50 47.49120 -1.29644 33230 ft 452 kts 225°
2026-04-26 09:51 47.44451 -1.35855 33235 ft 452 kts 225°
2026-04-26 09:51 47.39777 -1.42078 33239 ft 451 kts 225°
2026-04-26 09:52 47.35102 -1.48281 33234 ft 452 kts 225°
2026-04-26 09:52 47.28107 -1.57501 33234 ft 452 kts 225°
2026-04-26 09:53 47.23413 -1.63674 33234 ft 453 kts 225°
2026-04-26 09:53 47.18712 -1.69852 33242 ft 452 kts 224°
2026-04-26 09:54 47.14033 -1.76004 33236 ft 451 kts 224°
2026-04-26 09:54 47.09348 -1.82139 33227 ft 451 kts 224°
2026-04-26 09:55 47.04660 -1.88246 33230 ft 451 kts 224°
2026-04-26 09:55 46.99999 -1.94307 33227 ft 450 kts 224°
2026-04-26 09:56 46.95316 -2.00399 33229 ft 450 kts 224°
2026-04-26 09:56 46.90619 -2.06482 33220 ft 450 kts 223°
2026-04-26 09:57 46.85922 -2.12536 33225 ft 450 kts 223°
2026-04-26 09:57 46.81230 -2.18580 33225 ft 450 kts 223°
2026-04-26 09:58 46.76522 -2.24620 33233 ft 450 kts 223°
2026-04-26 09:58 46.71823 -2.30646 33236 ft 450 kts 223°
2026-04-26 09:59 46.67123 -2.36664 33236 ft 450 kts 223°
2026-04-26 09:59 46.62418 -2.42670 33241 ft 450 kts 223°
2026-04-26 10:00 46.57717 -2.48655 33251 ft 448 kts 223°
2026-04-26 10:00 46.55379 -2.51627 33631 ft 443 kts 223°
2026-04-26 10:00 46.53061 -2.54567 33987 ft 440 kts 223°
2026-04-26 10:01 46.50779 -2.57453 34252 ft 440 kts 223°
2026-04-26 10:01 46.48439 -2.60410 34466 ft 439 kts 223°
2026-04-26 10:01 46.46170 -2.63279 34677 ft 439 kts 223°
2026-04-26 10:01 46.43873 -2.66180 34889 ft 439 kts 223°
2026-04-26 10:02 46.41569 -2.69093 35108 ft 438 kts 223°
2026-04-26 10:02 46.39267 -2.72005 35220 ft 439 kts 223°
2026-04-26 10:02 46.34660 -2.77812 35228 ft 438 kts 223°
2026-04-26 10:03 46.30051 -2.83584 35228 ft 437 kts 223°
2026-04-26 10:03 46.25451 -2.89321 35228 ft 436 kts 222°
2026-04-26 10:04 46.20822 -2.94999 35228 ft 437 kts 222°
2026-04-26 10:04 46.16181 -3.00641 35230 ft 437 kts 222°
2026-04-26 10:05 46.11527 -3.06290 35221 ft 437 kts 222°
2026-04-26 10:05 46.06875 -3.11944 35218 ft 438 kts 222°
2026-04-26 10:06 46.02229 -3.17579 35221 ft 439 kts 221°
2026-04-26 10:06 45.97528 -3.23259 35237 ft 438 kts 221°
2026-04-26 10:07 45.92885 -3.28864 35240 ft 438 kts 221°
2026-04-26 10:07 45.88216 -3.34489 35237 ft 438 kts 221°
2026-04-26 10:08 45.83530 -3.40105 35242 ft 438 kts 221°
2026-04-26 10:08 45.78851 -3.45721 35238 ft 439 kts 221°
2026-04-26 10:09 45.74154 -3.51340 35232 ft 439 kts 221°
2026-04-26 10:09 45.69489 -3.56898 35236 ft 438 kts 221°
2026-04-26 10:10 45.64801 -3.62478 35241 ft 438 kts 221°
2026-04-26 10:10 45.60107 -3.68063 35236 ft 438 kts 221°
2026-04-26 10:11 45.55410 -3.73623 35241 ft 438 kts 221°
2026-04-26 10:11 45.50706 -3.79169 35240 ft 438 kts 221°
2026-04-26 10:12 45.46002 -3.84718 35231 ft 439 kts 221°
2026-04-26 10:12 45.41326 -3.90227 35231 ft 439 kts 221°
2026-04-26 10:13 45.36616 -3.95768 35243 ft 438 kts 221°
2026-04-26 10:13 45.31913 -4.01289 35241 ft 438 kts 221°
2026-04-26 10:14 45.27207 -4.06792 35236 ft 439 kts 221°
2026-04-26 10:14 45.22481 -4.12293 35234 ft 439 kts 221°
2026-04-26 10:15 45.17762 -4.17795 35234 ft 439 kts 221°
2026-04-26 10:15 45.13034 -4.23293 35238 ft 440 kts 220°
2026-04-26 10:16 45.08288 -4.28785 35231 ft 440 kts 220°
2026-04-26 10:16 45.03564 -4.34234 35242 ft 441 kts 220°
2026-04-26 10:17 44.98809 -4.39717 35232 ft 441 kts 220°
2026-04-26 10:17 44.94038 -4.45213 35241 ft 442 kts 220°
2026-04-26 10:18 44.89271 -4.50694 35234 ft 442 kts 220°
2026-04-26 10:18 44.84499 -4.56162 35230 ft 443 kts 220°
2026-04-26 10:19 44.79710 -4.61631 35237 ft 443 kts 220°
2026-04-26 10:19 44.74952 -4.67055 35244 ft 442 kts 220°
2026-04-26 10:20 44.70976 -4.71585 35245 ft 442 kts 220°
2026-04-26 10:20 44.65387 -4.77945 35246 ft 442 kts 220°
2026-04-26 10:21 44.60602 -4.83379 35246 ft 442 kts 220°
2026-04-26 10:21 44.55811 -4.88784 35246 ft 442 kts 220°
2026-04-26 10:22 44.51015 -4.94182 35244 ft 442 kts 218°
2026-04-26 10:22 44.45846 -4.98866 35237 ft 443 kts 213°
2026-04-26 10:23 44.40648 -5.03404 35241 ft 443 kts 213°
2026-04-26 10:23 44.35415 -5.07963 35240 ft 443 kts 213°
2026-04-26 10:24 44.30173 -5.12519 35234 ft 443 kts 213°
2026-04-26 10:24 44.25824 -5.16306 35229 ft 444 kts 213°
2026-04-26 10:25 44.20580 -5.20860 35229 ft 444 kts 213°
2026-04-26 10:25 44.15326 -5.25407 35232 ft 445 kts 213°
2026-04-26 10:26 44.10068 -5.29941 35224 ft 445 kts 213°
2026-04-26 10:26 44.04797 -5.34479 35226 ft 445 kts 213°
2026-04-26 10:27 43.99534 -5.39003 35232 ft 444 kts 213°
2026-04-26 10:27 43.94271 -5.43518 35234 ft 444 kts 213°
2026-04-26 10:28 43.89027 -5.48020 35228 ft 444 kts 213°
2026-04-26 10:28 43.83760 -5.52515 35224 ft 445 kts 213°
2026-04-26 10:29 43.78482 -5.57004 35222 ft 445 kts 213°
2026-04-26 10:29 43.73205 -5.61495 35221 ft 446 kts 213°
2026-04-26 10:30 43.67918 -5.65997 35210 ft 446 kts 213°
2026-04-26 10:30 43.62621 -5.70486 35207 ft 447 kts 213°
2026-04-26 10:31 43.57345 -5.74943 35223 ft 447 kts 213°
2026-04-26 10:31 43.52044 -5.79413 35229 ft 447 kts 213°
2026-04-26 10:32 43.46737 -5.83877 35220 ft 447 kts 212°
2026-04-26 10:32 43.41428 -5.88334 35213 ft 447 kts 213°
2026-04-26 10:33 43.36116 -5.92801 35210 ft 448 kts 213°
2026-04-26 10:33 43.30797 -5.97264 35201 ft 448 kts 212°
2026-04-26 10:34 43.25462 -6.01712 35192 ft 448 kts 212°
2026-04-26 10:34 43.20133 -6.06151 35184 ft 449 kts 212°
2026-04-26 10:35 43.14788 -6.10599 35180 ft 449 kts 212°
2026-04-26 10:35 43.09447 -6.15033 35180 ft 449 kts 212°
2026-04-26 10:36 43.04101 -6.19457 35175 ft 449 kts 212°
2026-04-26 10:36 42.98791 -6.23842 35179 ft 449 kts 212°
2026-04-26 10:37 42.93440 -6.28254 35168 ft 449 kts 212°
2026-04-26 10:37 42.88085 -6.32666 35170 ft 449 kts 212°
2026-04-26 10:38 42.82726 -6.37070 35166 ft 450 kts 212°
2026-04-26 10:38 42.77355 -6.41473 35155 ft 451 kts 212°
2026-04-26 10:39 42.71966 -6.45877 35150 ft 451 kts 212°
2026-04-26 10:39 42.66583 -6.50271 35156 ft 451 kts 212°
2026-04-26 10:40 42.61207 -6.54650 35153 ft 451 kts 212°
2026-04-26 10:40 42.55824 -6.59028 35164 ft 451 kts 212°
2026-04-26 10:41 42.50436 -6.63408 35179 ft 451 kts 212°
2026-04-26 10:41 42.45058 -6.67765 35170 ft 451 kts 212°
2026-04-26 10:42 42.39707 -6.72083 35164 ft 450 kts 212°
2026-04-26 10:42 42.34320 -6.76426 35160 ft 451 kts 212°
2026-04-26 10:43 42.28931 -6.80767 35157 ft 451 kts 212°
2026-04-26 10:43 42.23539 -6.85101 35163 ft 451 kts 212°
2026-04-26 10:44 42.18134 -6.89428 35161 ft 451 kts 212°
2026-04-26 10:44 42.12733 -6.93752 35157 ft 452 kts 212°
2026-04-26 10:45 42.07325 -6.98080 35157 ft 452 kts 212°
2026-04-26 10:45 42.01918 -7.02386 35152 ft 452 kts 212°
2026-04-26 10:46 41.96500 -7.06683 35159 ft 452 kts 211°
2026-04-26 10:46 41.91085 -7.10974 35153 ft 452 kts 211°
2026-04-26 10:47 41.85706 -7.15234 35148 ft 452 kts 211°
2026-04-26 10:47 41.80286 -7.19526 35154 ft 452 kts 211°
2026-04-26 10:48 41.74935 -7.23938 35137 ft 451 kts 218°
2026-04-26 10:48 41.70184 -7.29405 35148 ft 451 kts 222°
2026-04-26 10:49 41.65464 -7.34934 35153 ft 451 kts 222°
2026-04-26 10:49 41.60734 -7.40445 35145 ft 451 kts 222°
2026-04-26 10:50 41.56805 -7.45021 35159 ft 451 kts 222°
2026-04-26 10:50 41.51279 -7.51469 35157 ft 451 kts 222°
2026-04-26 10:51 41.44188 -7.59706 35159 ft 451 kts 222°
2026-04-26 10:52 41.39475 -7.65161 35152 ft 450 kts 222°
2026-04-26 10:52 41.34743 -7.70642 35153 ft 450 kts 222°
2026-04-26 10:53 41.30015 -7.76104 35148 ft 450 kts 221°
2026-04-26 10:53 41.25281 -7.81545 35148 ft 449 kts 222°
2026-04-26 10:54 41.18208 -7.89667 35143 ft 449 kts 221°
2026-04-26 10:54 41.13479 -7.95095 35139 ft 449 kts 222°
2026-04-26 10:55 41.08759 -8.00505 35140 ft 449 kts 222°
2026-04-26 10:55 41.04821 -8.05004 35132 ft 449 kts 221°
2026-04-26 10:56 40.99285 -8.11299 35127 ft 449 kts 221°
2026-04-26 10:56 40.94540 -8.16692 35130 ft 449 kts 221°
2026-04-26 10:57 40.89796 -8.22069 35132 ft 449 kts 221°
2026-04-26 10:57 40.85070 -8.27413 35129 ft 449 kts 221°
2026-04-26 10:58 40.80316 -8.32783 35126 ft 449 kts 221°
2026-04-26 10:58 40.75561 -8.38145 35123 ft 450 kts 221°
2026-04-26 10:59 40.70801 -8.43514 35123 ft 450 kts 221°
2026-04-26 10:59 40.66031 -8.48877 35120 ft 450 kts 221°
2026-04-26 11:00 40.61254 -8.54230 35130 ft 451 kts 221°
2026-04-26 11:00 40.56479 -8.59583 35135 ft 450 kts 221°
2026-04-26 11:01 40.51705 -8.64920 35136 ft 450 kts 220°
2026-04-26 11:01 40.46965 -8.70199 35136 ft 450 kts 220°
2026-04-26 11:02 40.42190 -8.75517 35142 ft 450 kts 220°
2026-04-26 11:02 40.37411 -8.80820 35144 ft 449 kts 220°
2026-04-26 11:03 40.32637 -8.86105 35145 ft 449 kts 220°
2026-04-26 11:03 40.27861 -8.91400 35143 ft 449 kts 220°
2026-04-26 11:04 40.23087 -8.96677 35143 ft 449 kts 220°
2026-04-26 11:04 40.18300 -9.01947 35142 ft 449 kts 220°
2026-04-26 11:05 40.13515 -9.07210 35142 ft 449 kts 220°
2026-04-26 11:05 40.08738 -9.12453 35151 ft 448 kts 220°
2026-04-26 11:06 40.04762 -9.16808 35155 ft 448 kts 220°
2026-04-26 11:06 39.99207 -9.22883 35154 ft 447 kts 220°
2026-04-26 11:07 39.94438 -9.28104 35156 ft 447 kts 220°
2026-04-26 11:07 39.89663 -9.33301 35155 ft 447 kts 220°
2026-04-26 11:08 39.85698 -9.37611 35146 ft 447 kts 220°
2026-04-26 11:08 39.80923 -9.42797 35147 ft 447 kts 220°
2026-04-26 11:09 39.76150 -9.47973 35153 ft 447 kts 220°
2026-04-26 11:09 39.71374 -9.53133 35157 ft 446 kts 220°
2026-04-26 11:10 39.66615 -9.58274 35160 ft 445 kts 220°
2026-04-26 11:10 39.61878 -9.63383 35150 ft 445 kts 220°
2026-04-26 11:11 39.57114 -9.68504 35152 ft 445 kts 220°
2026-04-26 11:11 39.52350 -9.73626 35155 ft 444 kts 220°
2026-04-26 11:12 39.47592 -9.78732 35153 ft 444 kts 220°
2026-04-26 11:12 39.42826 -9.83832 35165 ft 444 kts 220°
2026-04-26 11:13 39.38060 -9.88908 35153 ft 444 kts 220°
2026-04-26 11:13 39.33294 -9.93977 35155 ft 443 kts 220°
2026-04-26 11:14 39.28538 -9.99039 35158 ft 443 kts 220°
2026-04-26 11:14 39.23781 -10.04101 35156 ft 443 kts 220°
2026-04-26 11:15 39.19023 -10.09159 35157 ft 443 kts 220°
2026-04-26 11:15 39.14259 -10.14207 35163 ft 443 kts 220°
2026-04-26 11:16 39.09493 -10.19239 35156 ft 443 kts 220°
2026-04-26 11:16 39.04719 -10.24263 35154 ft 443 kts 220°
2026-04-26 11:17 38.99981 -10.29246 35159 ft 443 kts 220°
2026-04-26 11:17 38.95214 -10.34260 35161 ft 443 kts 220°
2026-04-26 11:18 38.90448 -10.39268 35163 ft 442 kts 220°
2026-04-26 11:18 38.85675 -10.44267 35162 ft 442 kts 220°
2026-04-26 11:19 38.80907 -10.49254 35156 ft 442 kts 220°
2026-04-26 11:19 38.76136 -10.54237 35155 ft 442 kts 220°
2026-04-26 11:20 38.72164 -10.58359 35160 ft 442 kts 220°
2026-04-26 11:20 38.66579 -10.64160 35167 ft 442 kts 220°
2026-04-26 11:21 38.61792 -10.69128 35158 ft 442 kts 220°
2026-04-26 11:21 38.57018 -10.74074 35163 ft 442 kts 220°
2026-04-26 11:22 38.52269 -10.78989 35168 ft 441 kts 220°
2026-04-26 11:22 38.47497 -10.83919 35161 ft 441 kts 220°
2026-04-26 11:23 38.42717 -10.88842 35168 ft 441 kts 220°
2026-04-26 11:23 38.37936 -10.93752 35165 ft 441 kts 220°
2026-04-26 11:24 38.33161 -10.98648 35171 ft 440 kts 219°
2026-04-26 11:24 38.28397 -11.03529 35174 ft 440 kts 219°
2026-04-26 11:25 38.23627 -11.08428 35167 ft 440 kts 219°
2026-04-26 11:25 38.18860 -11.13310 35166 ft 440 kts 219°
2026-04-26 11:26 38.14085 -11.18166 35166 ft 440 kts 219°
2026-04-26 11:26 38.09311 -11.23015 35165 ft 439 kts 219°
2026-04-26 11:27 38.04560 -11.27845 35166 ft 439 kts 219°
2026-04-26 11:27 37.99782 -11.32701 35166 ft 440 kts 219°
2026-04-26 11:28 37.95002 -11.37538 35171 ft 439 kts 219°
2026-04-26 11:28 37.90228 -11.42360 35174 ft 439 kts 219°
2026-04-26 11:29 37.85441 -11.47188 35173 ft 439 kts 219°
2026-04-26 11:29 37.80664 -11.52002 35166 ft 439 kts 218°
2026-04-26 11:30 37.76693 -11.55990 35168 ft 439 kts 219°
2026-04-26 11:30 37.71145 -11.61572 35173 ft 439 kts 219°
2026-04-26 11:31 37.66358 -11.66384 35166 ft 439 kts 218°
2026-04-26 11:31 37.61574 -11.71171 35163 ft 439 kts 218°
2026-04-26 11:32 37.56784 -11.75945 35159 ft 439 kts 218°
2026-04-26 11:32 37.51997 -11.80726 35167 ft 439 kts 218°
2026-04-26 11:33 37.47229 -11.85475 35164 ft 439 kts 218°
2026-04-26 11:33 37.42432 -11.90240 35164 ft 439 kts 218°
2026-04-26 11:34 37.37641 -11.94993 35159 ft 439 kts 218°
2026-04-26 11:34 37.32845 -11.99747 35164 ft 439 kts 218°
2026-04-26 11:35 37.28049 -12.04492 35169 ft 439 kts 218°
2026-04-26 11:35 37.24059 -12.08426 35159 ft 439 kts 217°
2026-04-26 11:36 37.18435 -12.13960 35160 ft 439 kts 218°
2026-04-26 11:36 37.13631 -12.18692 35163 ft 439 kts 218°
2026-04-26 11:37 37.08820 -12.23427 35160 ft 439 kts 217°
2026-04-26 11:37 37.04033 -12.28129 35159 ft 440 kts 217°
2026-04-26 11:38 36.99207 -12.32848 35161 ft 440 kts 217°
2026-04-26 11:38 36.94384 -12.37558 35163 ft 440 kts 217°
2026-04-26 11:39 36.89552 -12.42274 35168 ft 441 kts 217°
2026-04-26 11:39 36.84717 -12.46989 35165 ft 441 kts 217°
2026-04-26 11:40 36.79882 -12.51701 35160 ft 441 kts 216°
2026-04-26 11:40 36.75039 -12.56396 35163 ft 441 kts 217°
2026-04-26 11:42 36.55622 -12.75178 35163 ft 442 kts 217°
2026-04-26 11:43 36.50796 -12.79826 35172 ft 442 kts 217°
2026-04-26 11:43 36.45927 -12.84509 35180 ft 442 kts 216°
2026-04-26 11:44 36.41065 -12.89170 35175 ft 441 kts 216°
2026-04-26 11:44 36.36206 -12.93834 35166 ft 441 kts 216°
2026-04-26 11:45 36.31360 -12.98508 35167 ft 442 kts 218°
2026-04-26 11:45 36.26703 -13.03486 35169 ft 442 kts 220°
2026-04-26 11:46 36.22185 -13.08591 35169 ft 442 kts 221°
2026-04-26 11:46 36.17614 -13.13682 35174 ft 442 kts 220°
2026-04-26 11:47 36.12976 -13.18720 35163 ft 443 kts 219°
2026-04-26 11:47 36.08330 -13.23738 35161 ft 443 kts 220°
2026-04-26 11:48 36.03689 -13.28771 35164 ft 443 kts 220°
2026-04-26 11:48 35.99038 -13.33812 35162 ft 444 kts 219°
2026-04-26 11:49 35.94392 -13.38822 35161 ft 444 kts 220°
2026-04-26 11:49 35.89742 -13.43843 35162 ft 444 kts 220°
2026-04-26 11:50 35.85126 -13.48827 35166 ft 444 kts 220°
2026-04-26 11:50 35.80480 -13.53825 35176 ft 443 kts 220°
2026-04-26 11:51 35.75832 -13.58826 35171 ft 444 kts 219°
2026-04-26 11:51 35.71179 -13.63823 35173 ft 444 kts 219°
2026-04-26 11:52 35.67303 -13.67963 35173 ft 443 kts 219°
2026-04-26 11:52 35.61848 -13.73784 35169 ft 444 kts 219°
2026-04-26 11:53 35.57968 -13.77924 35164 ft 444 kts 219°
2026-04-26 11:54 35.50970 -13.85386 35166 ft 444 kts 219°
2026-04-26 11:54 35.46294 -13.90352 35163 ft 444 kts 219°
2026-04-26 11:55 35.41620 -13.95316 35160 ft 445 kts 219°
2026-04-26 11:55 35.36937 -14.00289 35159 ft 446 kts 219°
2026-04-26 11:56 35.32238 -14.05264 35159 ft 446 kts 219°
2026-04-26 11:56 35.27565 -14.10193 35162 ft 446 kts 218°
2026-04-26 11:57 35.22860 -14.15153 35163 ft 446 kts 219°
2026-04-26 11:57 35.18153 -14.20109 35161 ft 447 kts 219°
2026-04-26 11:58 35.13439 -14.25061 35168 ft 447 kts 219°
2026-04-26 11:58 35.08714 -14.30030 35156 ft 448 kts 219°
2026-04-26 11:59 35.03981 -14.34989 35154 ft 449 kts 219°
2026-04-26 11:59 34.99263 -14.39925 35154 ft 449 kts 219°
2026-04-26 12:00 34.94513 -14.44895 35163 ft 449 kts 219°
2026-04-26 12:00 34.89766 -14.49844 35167 ft 449 kts 219°
2026-04-26 12:01 34.85005 -14.54796 35169 ft 450 kts 219°
2026-04-26 12:01 34.80246 -14.59744 35170 ft 450 kts 219°
2026-04-26 12:02 34.75476 -14.64695 35168 ft 451 kts 220°
2026-04-26 12:02 34.70709 -14.69641 35169 ft 451 kts 220°
2026-04-26 12:03 34.65934 -14.74587 35171 ft 451 kts 219°
2026-04-26 12:03 34.61186 -14.79498 35173 ft 451 kts 219°
2026-04-26 12:04 34.56400 -14.84433 35173 ft 451 kts 219°
2026-04-26 12:04 34.51618 -14.89356 35168 ft 451 kts 219°
2026-04-26 12:05 34.46831 -14.94284 35180 ft 451 kts 219°
2026-04-26 12:05 34.42049 -14.99195 35178 ft 451 kts 219°
2026-04-26 12:06 34.37262 -15.04104 35176 ft 450 kts 219°
2026-04-26 12:06 34.32484 -15.09000 35173 ft 450 kts 219°
2026-04-26 12:07 34.27729 -15.13862 35166 ft 450 kts 219°
2026-04-26 12:07 34.22942 -15.18744 35170 ft 449 kts 219°
2026-04-26 12:08 34.18079 -15.23501 35174 ft 449 kts 216°
2026-04-26 12:08 34.13031 -15.27929 35172 ft 448 kts 214°
2026-04-26 12:09 34.07933 -15.32291 35167 ft 448 kts 214°
2026-04-26 12:09 34.02884 -15.36706 35166 ft 449 kts 215°
2026-04-26 12:10 33.97877 -15.41141 35170 ft 448 kts 215°
2026-04-26 12:10 33.92850 -15.45594 35169 ft 448 kts 215°
2026-04-26 12:11 33.87818 -15.50031 35169 ft 448 kts 215°
2026-04-26 12:11 33.82774 -15.54454 34780 ft 448 kts 215°
2026-04-26 12:11 33.80252 -15.56666 33904 ft 451 kts 215°
2026-04-26 12:12 33.77753 -15.58860 33076 ft 450 kts 215°
2026-04-26 12:12 33.75223 -15.61083 32223 ft 450 kts 215°
2026-04-26 12:12 33.72687 -15.63308 31314 ft 452 kts 216°
2026-04-26 12:12 33.70961 -15.64820 30659 ft 455 kts 216°
2026-04-26 12:13 33.67558 -15.67793 29221 ft 459 kts 216°
2026-04-26 12:13 33.64961 -15.70058 28267 ft 459 kts 216°
2026-04-26 12:13 33.62416 -15.72276 27942 ft 446 kts 216°
2026-04-26 12:13 33.59922 -15.74446 27367 ft 440 kts 216°
2026-04-26 12:14 33.57447 -15.76601 26739 ft 436 kts 216°
2026-04-26 12:14 33.55087 -15.78858 26146 ft 432 kts 223°
2026-04-26 12:14 33.52967 -15.81330 25531 ft 430 kts 225°
2026-04-26 12:14 33.50843 -15.83836 24942 ft 427 kts 225°
2026-04-26 12:15 33.48703 -15.86354 24355 ft 424 kts 225°
2026-04-26 12:15 33.46622 -15.88791 23786 ft 422 kts 225°
2026-04-26 12:15 33.44525 -15.91241 23143 ft 419 kts 225°
2026-04-26 12:15 33.42445 -15.93672 22516 ft 416 kts 225°
2026-04-26 12:16 33.40376 -15.96091 21914 ft 414 kts 225°
2026-04-26 12:16 33.38318 -15.98498 21349 ft 412 kts 225°
2026-04-26 12:16 33.36274 -16.00884 20829 ft 410 kts 224°
2026-04-26 12:16 33.34233 -16.03261 20326 ft 407 kts 224°
2026-04-26 12:17 33.32211 -16.05613 19844 ft 405 kts 224°
2026-04-26 12:17 33.30217 -16.07932 19388 ft 402 kts 224°
2026-04-26 12:17 33.28193 -16.10289 18889 ft 400 kts 224°
2026-04-26 12:17 33.26205 -16.12604 18401 ft 399 kts 224°
2026-04-26 12:18 33.24224 -16.14911 17868 ft 396 kts 224°
2026-04-26 12:18 33.22283 -16.17170 17304 ft 394 kts 224°
2026-04-26 12:18 33.20323 -16.19449 16740 ft 392 kts 224°
2026-04-26 12:18 33.18376 -16.21705 16219 ft 389 kts 223°
2026-04-26 12:19 33.16437 -16.23951 15636 ft 387 kts 223°
2026-04-26 12:19 33.14503 -16.26190 15078 ft 386 kts 223°
2026-04-26 12:19 33.12584 -16.28407 14578 ft 383 kts 223°
2026-04-26 12:19 33.10669 -16.30617 14013 ft 382 kts 223°
2026-04-26 12:20 33.08759 -16.32822 13416 ft 381 kts 223°
2026-04-26 12:20 33.06866 -16.35010 12898 ft 377 kts 223°
2026-04-26 12:20 33.04991 -16.37178 12355 ft 373 kts 223°
2026-04-26 12:20 33.03146 -16.39313 11476 ft 367 kts 223°
2026-04-26 12:21 33.01337 -16.41407 10947 ft 352 kts 223°
2026-04-26 12:21 32.99645 -16.43365 10818 ft 327 kts 223°
2026-04-26 12:21 32.98057 -16.45200 10552 ft 312 kts 223°
2026-04-26 12:21 32.96512 -16.46979 10069 ft 306 kts 223°
2026-04-26 12:22 32.95014 -16.48702 9521 ft 302 kts 222°
2026-04-26 12:22 32.93502 -16.50436 8919 ft 300 kts 222°
2026-04-26 12:22 32.91995 -16.52146 8307 ft 298 kts 221°
2026-04-26 12:22 32.90469 -16.53803 7751 ft 295 kts 220°
2026-04-26 12:23 32.88958 -16.55409 7429 ft 283 kts 220°
2026-04-26 12:23 32.87519 -16.56930 7115 ft 273 kts 219°
2026-04-26 12:23 32.86102 -16.58424 6654 ft 271 kts 219°
2026-04-26 12:23 32.84628 -16.59799 6111 ft 268 kts 212°
2026-04-26 12:24 32.83086 -16.61054 5516 ft 270 kts 213°
2026-04-26 12:24 32.81535 -16.62333 4891 ft 273 kts 213°
2026-04-26 12:24 32.79974 -16.63627 4251 ft 274 kts 214°
2026-04-26 12:25 32.76784 -16.66269 2816 ft 284 kts 216°
2026-04-26 12:25 32.75188 -16.67586 2481 ft 273 kts 216°
2026-04-26 12:25 32.73681 -16.68827 2154 ft 262 kts 216°
2026-04-26 12:25 32.72219 -16.70033 1867 ft 250 kts 216°
2026-04-26 12:26 32.70833 -16.71174 1585 ft 233 kts 216°
2026-04-26 12:26 32.69559 -16.72221 1381 ft 217 kts 215°
2026-04-26 12:26 32.68363 -16.73198 1387 ft 195 kts 214°
2026-04-26 12:26 32.67320 -16.74064 1380 ft 172 kts 216°
2026-04-26 12:27 32.66376 -16.74875 1405 ft 163 kts 217°
2026-04-26 12:27 32.65466 -16.75684 1398 ft 164 kts 218°
2026-04-26 12:27 32.64585 -16.76521 1375 ft 161 kts 225°
2026-04-26 12:27 32.63972 -16.77615 1386 ft 159 kts 251°
2026-04-26 12:28 32.63814 -16.78884 1388 ft 154 kts 281°
2026-04-26 12:28 32.64233 -16.80007 1363 ft 149 kts 316°
2026-04-26 12:28 32.65090 -16.80616 1103 ft 144 kts 351°
2026-04-26 12:28 32.66064 -16.80542 830 ft 140 kts 13°
2026-04-26 12:29 32.67001 -16.80233 695 ft 141 kts 18°
2026-04-26 12:29 32.67866 -16.79691 436 ft 141 kts 40°
2026-04-26 12:29 32.69252 -16.78073 175 ft 133 kts 42°
2026-04-26 12:30 32.69771 -16.77469 182 ft 66 kts 44°
2026-04-26 12:30 32.69925 -16.77287 197 ft 16 kts 45°
2026-04-26 12:30 32.69949 -16.77190 188 ft 13 kts 132°
2026-04-26 12:31 32.69813 -16.77207 182 ft 10 kts 227°
2026-04-26 12:31 32.69768 -16.77266 177 ft 12 kts 227°
2026-04-26 12:31 32.69708 -16.77339 170 ft 10 kts 225°
2026-04-26 12:31 32.69652 -16.77406 169 ft 12 kts 226°
2026-04-26 12:32 32.69590 -16.77483 169 ft 14 kts 226°
2026-04-26 12:32 32.69527 -16.77562 169 ft 12 kts 226°
2026-04-26 12:32 32.69452 -16.77633 169 ft 5 kts 159°
2026-04-26 12:33 32.69427 -16.77607 169 ft 3 kts 137°
2026-04-26 12:33 32.69414 -16.77593 169 ft 1 kts 138°
2026-04-26 12:33 32.69413 -16.77592 169 ft 0 kts 138°